Weather History for North Wilkesboro, NC

Change the Weather History Date:

Tuesday, January 22, 2013

  Actual Average Record
Temperature  
Mean Temperature 28 °F -  
Max Temperature 33 °F 48 °F 98 °F (2001)
Min Temperature 23 °F 21 °F -7 °F (1985)
Degree Days  
Heating Degree Days 36    
Moisture  
Dew Point 0 °F    
Average Humidity 29    
Maximum Humidity 47    
Minimum Humidity 20    
Precipitation  
Precipitation 0.00 in - - ()
Sea Level Pressure  
Sea Level Pressure 30.19 in    
Wind  
Wind Speed 5 mph (WNW)    
Max Wind Speed 13 mph    
Max Gust Speed 21 mph    
Visibility 10 miles    
Events      
Averages and records for this station are not official NWS values.
T = Trace of Precipitation, MM = Missing Value Source: NWS Daily Summary

Daily Weather History Graph

Daily Weather History Graph

Search for Another Location

Airport:

Trip Planner

Search our weather history database for the weather conditions in past years. The results will help you decide how hot, cold, wet, or windy it might be!

Date:

Astronomy

Jan. 22, 2013 Rise Set
Actual Time 7:31 AM EST 5:40 PM EST
Civil Twilight 7:04 AM EST 6:08 PM EST
Nautical Twilight 6:33 AM EST 6:39 PM EST
Astronomical Twilight 6:02 AM EST 7:10 PM EST
Moon 2:03 PM EST (1/22) 3:51 AM EST (1/22)
Length of Visible Light 11h 04m
Length of Day
10h 08m
Waxing Gibbous, 82% of the Moon is Illuminated
Jan 22
Waxing Gibbous
Jan 26
Full
Feb 3
Last Quarter
Feb 10
New
Feb 17
First Quarter

Hourly Weather History & Observations

Time (EST) Temp. Windchill Dew Point Humidity Pressure Visibility Wind Dir Wind Speed Gust Speed Precip Events Conditions
12:35 AM 32.0 °F 27.5 °F 10.4 °F 41% 30.03 in 10.0 mi NW 4.6 mph - N/A   Clear
12:55 AM 32.0 °F 28.7 °F 8.6 °F 38% 30.04 in 10.0 mi WNW 3.5 mph - N/A   Clear
1:15 AM 30.2 °F - 10.4 °F 44% 30.04 in 10.0 mi Calm Calm - N/A   Clear
1:35 AM 30.2 °F 26.7 °F 8.6 °F 40% 30.04 in 10.0 mi West 3.5 mph - N/A   Clear
2:15 AM 28.4 °F - 8.6 °F 43% 30.05 in 10.0 mi Calm Calm - N/A   Clear
2:35 AM 28.4 °F 24.6 °F 10.4 °F 47% 30.06 in 10.0 mi NW 3.5 mph - N/A   Clear
2:55 AM 28.4 °F - 5.0 °F 37% 30.06 in 10.0 mi Calm Calm - N/A   Clear
3:15 AM 28.4 °F 24.6 °F 3.2 °F 34% 30.07 in 10.0 mi NW 3.5 mph - N/A   Clear
3:35 AM 28.4 °F 24.6 °F 3.2 °F 34% 30.08 in 10.0 mi NNW 3.5 mph - N/A   Clear
3:55 AM 28.4 °F 22.2 °F 3.2 °F 34% 30.08 in 10.0 mi NW 5.8 mph - N/A   Clear
4:15 AM 26.6 °F 21.2 °F 3.2 °F 37% 30.08 in 10.0 mi NNW 4.6 mph - N/A   Clear
4:35 AM 26.6 °F 21.2 °F 3.2 °F 37% 30.09 in 10.0 mi North 4.6 mph - N/A   Clear
4:55 AM 26.6 °F 20.0 °F 3.2 °F 37% 30.10 in 10.0 mi NNW 5.8 mph - N/A   Clear
5:15 AM 26.6 °F 22.6 °F 3.2 °F 37% 30.10 in 10.0 mi NNW 3.5 mph - N/A   Clear
5:35 AM 26.6 °F 21.2 °F 3.2 °F 37% 30.11 in 10.0 mi NNW 4.6 mph - N/A   Clear
5:55 AM 26.6 °F 17.5 °F 1.4 °F 34% 30.12 in 10.0 mi NNW 9.2 mph - N/A   Clear
6:15 AM 26.6 °F 20.0 °F 1.4 °F 34% 30.13 in 10.0 mi NNW 5.8 mph - N/A   Clear
6:35 AM 24.8 °F 20.5 °F 1.4 °F 36% 30.15 in 10.0 mi NNW 3.5 mph - N/A   Clear
6:55 AM 24.8 °F 17.9 °F -0.4 °F 34% 30.15 in 10.0 mi NW 5.8 mph - N/A   Clear
7:15 AM 24.8 °F 16.9 °F -0.4 °F 34% 30.16 in 10.0 mi NNW 6.9 mph - N/A   Clear
7:35 AM 24.8 °F 15.3 °F -0.4 °F 34% 30.17 in 10.0 mi NNW 9.2 mph - N/A   Clear
7:55 AM 24.8 °F 15.3 °F -4.0 °F 28% 30.18 in 10.0 mi NW 9.2 mph - N/A   Clear
8:15 AM 24.8 °F 15.3 °F -4.0 °F 28% 30.20 in 10.0 mi WNW 9.2 mph - N/A   Clear
8:35 AM 26.6 °F 16.8 °F -4.0 °F 26% 30.20 in 10.0 mi WNW 10.4 mph - N/A   Clear
8:55 AM 26.6 °F 18.2 °F -4.0 °F 26% 30.22 in 10.0 mi NNW 8.1 mph - N/A   Clear
9:15 AM 26.6 °F 17.5 °F -4.0 °F 26% 30.22 in 10.0 mi NW 9.2 mph - N/A   Clear
9:35 AM 28.4 °F 19.1 °F -4.0 °F 25% 30.23 in 10.0 mi NW 10.4 mph 18.4 mph N/A   Clear
9:55 AM 28.4 °F 22.2 °F -4.0 °F 25% 30.24 in 10.0 mi NW 5.8 mph - N/A   Clear
10:15 AM 28.4 °F 19.1 °F -4.0 °F 25% 30.24 in 10.0 mi NW 10.4 mph - N/A   Clear
10:35 AM 30.2 °F 23.4 °F -4.0 °F 23% 30.24 in 10.0 mi West 6.9 mph - N/A   Clear
10:55 AM 30.2 °F 21.9 °F -4.0 °F 23% 30.24 in 10.0 mi WNW 9.2 mph - N/A   Clear
11:15 AM 30.2 °F 23.4 °F -4.0 °F 23% 30.25 in 10.0 mi NW 6.9 mph - N/A   Clear
11:35 AM 32.0 °F 26.4 °F -2.2 °F 23% 30.24 in 10.0 mi WSW 5.8 mph - N/A   Clear
11:55 AM 32.0 °F 25.6 °F -4.0 °F 21% 30.23 in 10.0 mi SW 6.9 mph - N/A   Clear
12:15 PM 32.0 °F 26.4 °F -2.2 °F 23% 30.22 in 10.0 mi SW 5.8 mph - N/A   Clear
12:35 PM 32.0 °F 24.2 °F -4.0 °F 21% 30.22 in 10.0 mi West 9.2 mph 17.3 mph N/A   Clear
12:55 PM 32.0 °F 24.8 °F -4.0 °F 21% 30.20 in 10.0 mi NNW 8.1 mph 19.6 mph N/A   Clear
1:15 PM 32.0 °F 24.8 °F -2.2 °F 23% 30.20 in 10.0 mi WNW 8.1 mph - N/A   Clear
1:35 PM 33.8 °F 29.6 °F -2.2 °F 22% 30.19 in 10.0 mi WSW 4.6 mph - N/A   Clear
1:55 PM 33.8 °F 27.0 °F -2.2 °F 22% 30.18 in 10.0 mi West 8.1 mph - N/A   Clear
2:15 PM 33.8 °F 27.0 °F -4.0 °F 20% 30.19 in 10.0 mi West 8.1 mph - N/A   Clear
2:35 PM 33.8 °F 26.4 °F -4.0 °F 20% 30.19 in 10.0 mi West 9.2 mph 16.1 mph N/A   Clear
2:55 PM 33.8 °F 26.4 °F -0.4 °F 23% 30.19 in 10.0 mi West 9.2 mph - N/A   Clear
3:15 PM 33.8 °F 24.8 °F -0.4 °F 23% 30.18 in 10.0 mi SW 12.7 mph 16.1 mph N/A   Clear
3:35 PM 33.8 °F 25.3 °F -4.0 °F 20% 30.19 in 10.0 mi WSW 11.5 mph - N/A   Clear
3:55 PM 32.0 °F 23.6 °F -2.2 °F 23% 30.20 in 10.0 mi WSW 10.4 mph - N/A   Clear
4:15 PM 32.0 °F 23.6 °F -2.2 °F 23% 30.20 in 10.0 mi WSW 10.4 mph 20.7 mph N/A   Clear
4:35 PM 32.0 °F 24.2 °F -2.2 °F 23% 30.19 in 10.0 mi WSW 9.2 mph - N/A   Clear
4:55 PM 32.0 °F 25.6 °F -4.0 °F 21% 30.20 in 10.0 mi SW 6.9 mph - N/A   Clear
5:15 PM 32.0 °F 24.2 °F -4.0 °F 21% 30.22 in 10.0 mi WSW 9.2 mph - N/A   Clear
5:35 PM 30.2 °F 23.4 °F -2.2 °F 25% 30.22 in 10.0 mi WSW 6.9 mph - N/A   Clear
5:55 PM 30.2 °F 22.6 °F -4.0 °F 23% 30.23 in 10.0 mi WSW 8.1 mph - N/A   Clear
6:15 PM 28.4 °F 24.6 °F -4.0 °F 25% 30.24 in 10.0 mi WSW 3.5 mph - N/A   Clear
6:35 PM 28.4 °F 23.3 °F -2.2 °F 27% 30.24 in 10.0 mi SW 4.6 mph - N/A   Clear
6:55 PM 28.4 °F 24.6 °F -0.4 °F 29% 30.24 in 10.0 mi WSW 3.5 mph - N/A   Clear
7:15 PM 28.4 °F 23.3 °F -0.4 °F 29% 30.24 in 10.0 mi WSW 4.6 mph - N/A   Clear
7:35 PM 28.4 °F 23.3 °F -0.4 °F 29% 30.24 in 10.0 mi West 4.6 mph - N/A   Mostly Cloudy
7:55 PM 28.4 °F 24.6 °F -0.4 °F 29% 30.24 in 10.0 mi West 3.5 mph - N/A   Overcast
8:15 PM 28.4 °F 24.6 °F -0.4 °F 29% 30.24 in 10.0 mi West 3.5 mph - N/A   Overcast
8:35 PM 26.6 °F - -0.4 °F 31% 30.24 in 10.0 mi Calm Calm - N/A   Scattered Clouds
8:55 PM 26.6 °F - -0.4 °F 31% 30.25 in 10.0 mi Calm Calm - N/A   Clear
9:15 PM 26.6 °F - -0.4 °F 31% 30.26 in 10.0 mi Calm Calm - N/A   Clear
9:35 PM 26.6 °F - -0.4 °F 31% 30.27 in 10.0 mi Calm Calm - N/A   Scattered Clouds
9:55 PM 26.6 °F - -2.2 °F 29% 30.27 in 10.0 mi Calm Calm - N/A   Scattered Clouds
10:15 PM 26.6 °F - -0.4 °F 31% 30.27 in 10.0 mi Calm Calm - N/A   Scattered Clouds
10:35 PM 26.6 °F - -2.2 °F 29% 30.26 in 10.0 mi Calm Calm - N/A   Clear
10:55 PM 26.6 °F - -2.2 °F 29% 30.27 in 10.0 mi Calm Calm - N/A   Clear
11:15 PM 26.6 °F - -2.2 °F 29% 30.27 in 10.0 mi Calm Calm - N/A   Clear
11:35 PM 24.8 °F - -0.4 °F 34% 30.26 in 10.0 mi Calm Calm - N/A   Clear
11:55 PM 23.0 °F - 1.4 °F 39% 30.26 in 10.0 mi Calm Calm - N/A   Clear